Regional Weather Roundup
Issued by NWS

Home | Current Version | Previous Version | Graphics & Text | Print | Product List | Glossary On
Versions: 1 2 3 4 5 6 7 8 9 10 11 12 13 14 15 16 17 18 19 20 21 22 23 24 25 26 27 28 29 30 31 32 33 34 35 36 37 38 39 40 41 42 43 44 45 46 47 48 49 50
000
ASUS43 KLMK 181810
RWRKY
KENTUCKY REGIONAL WEATHER ROUNDUP
NATIONAL WEATHER SERVICE LOUISVILLE KY
200 PM EDT THU SEP 18 2014

NOTE "FAIR" INDICATES FEW OR NO CLOUDS BELOW 12,000 FEET
WITH NO SIGNIFICANT WEATHER AND/OR OBSTRUCTIONS TO VISIBILITY.

KYZ001>023-026-027-061>063-070>075-181900-
WESTERN AND SOUTH CENTRAL KENTUCKY

CITY           SKY/WX    TMP DP  RH WIND       PRES   REMARKS
PADUCAH        PTSUNNY   79  59  50 VRB7      30.03S
HENDERSON      PTSUNNY   72  54  53 NE7       30.06S
OWENSBORO      PTSUNNY   71  54  55 NE9       30.07R
HOPKINSVILLE   NOT AVBL
BOWLING GREEN  MOSUNNY   75  55  49 NE7       30.03F
GLASGOW        PTSUNNY   74  55  51 E3        30.04S
$$

KYZ024-025-028>034-038-045-046-053-181900-
NORTH CENTRAL KENTUCKY

CITY           SKY/WX    TMP DP  RH WIND       PRES   REMARKS
LOUISVILLE/SDF PTSUNNY   73  51  46 NE8       30.06S
LOUISVILLE/LOU MOSUNNY   72  51  47 N8        30.07S
FORT KNOX      NOT AVBL
$$

KYZ035>037-039>044-047>052-055>060-089>105-181900-
NORTHEAST KENTUCKY

CITY           SKY/WX    TMP DP  RH WIND       PRES   REMARKS
LEXINGTON      SUNNY     73  53  49 NE9       30.07F
COVINGTON      MOSUNNY   71  46  40 NE3       30.09S
FRANKFORT      SUNNY     71  53  52 E8        30.07S
$$

KYZ054-064>069-076>088-106>120-181900-
SOUTHEAST KENTUCKY

CITY           SKY/WX    TMP DP  RH WIND       PRES   REMARKS
JACKSON        MOSUNNY   71  52  50 VRB3      30.07F
LONDON         MOSUNNY   75  54  47 N5        30.06F
SOMERSET       NOT AVBL
MIDDLESBORO    MOSUNNY   73  55  51 CALM      30.05S
MONTICELLO     MOCLDY    75  57  53 E8        30.06S
$$



USA.gov is the U.S. government's official web portal to all federal, state and local government web resources and services.